Time,TemperatureF,DewpointF,PressureIn,WindDirection,WindDirectionDegrees,WindSpeedMPH,WindSpeedGustMPH,Humidity,HourlyPrecipIn,Conditions,Clouds,dailyrainin,SoftwareType,DateUTC
2013-03-02 00:32:00,28.0,-99.9,-100.00,ENE,64,28.0,41.0,-999,-99.99,,,-99.99,,2013-03-02 07:32:00,
2013-03-02 00:42:00,28.0,-99.9,-100.00,ENE,64,28.0,41.0,-999,-99.99,,,-99.99,,2013-03-02 07:42:00,
2013-03-02 00:50:00,28.0,-99.9,-100.00,ENE,66,31.0,44.0,-999,-99.99,,,-99.99,,2013-03-02 07:50:00,
2013-03-02 01:32:00,28.0,-99.9,-100.00,ENE,66,31.0,44.0,-999,-99.99,,,-99.99,,2013-03-02 08:32:00,
2013-03-02 01:43:00,28.0,-99.9,-100.00,ENE,66,31.0,44.0,-999,-99.99,,,-99.99,,2013-03-02 08:43:00,
2013-03-02 01:50:00,27.0,-99.9,-100.00,ENE,60,38.0,44.0,-999,-99.99,,,-99.99,,2013-03-02 08:50:00,
2013-03-02 02:32:00,27.0,-99.9,-100.00,ENE,60,38.0,44.0,-999,-99.99,,,-99.99,,2013-03-02 09:32:00,
2013-03-02 02:42:00,27.0,-99.9,-100.00,ENE,60,38.0,44.0,-999,-99.99,,,-99.99,,2013-03-02 09:42:00,
2013-03-02 02:50:00,27.0,-99.9,-100.00,ENE,62,41.0,43.0,-999,-99.99,,,-99.99,,2013-03-02 09:50:00,
2013-03-02 03:32:00,27.0,-99.9,-100.00,ENE,62,41.0,43.0,-999,-99.99,,,-99.99,,2013-03-02 10:32:00,
2013-03-02 03:43:00,27.0,-99.9,-100.00,ENE,62,41.0,43.0,-999,-99.99,,,-99.99,,2013-03-02 10:43:00,
2013-03-02 03:50:00,27.0,-99.9,-100.00,NE,55,31.0,42.0,-999,-99.99,,,-99.99,,2013-03-02 10:50:00,
2013-03-02 04:32:00,27.0,-99.9,-100.00,NE,55,31.0,42.0,-999,-99.99,,,-99.99,,2013-03-02 11:32:00,
2013-03-02 04:42:00,27.0,-99.9,-100.00,NE,55,31.0,42.0,-999,-99.99,,,-99.99,,2013-03-02 11:42:00,
2013-03-02 05:33:00,27.0,-99.9,-100.00,NE,55,40.0,46.0,-999,-99.99,,,-99.99,,2013-03-02 12:33:00,
2013-03-02 05:43:00,27.0,-99.9,-100.00,NE,55,40.0,46.0,-999,-99.99,,,-99.99,,2013-03-02 12:43:00,
2013-03-02 05:53:00,27.0,-99.9,-100.00,ENE,62,37.0,52.0,-999,-99.99,,,-99.99,,2013-03-02 12:53:00,
2013-03-02 06:02:00,27.0,-99.9,-100.00,ENE,57,41.0,51.0,-999,-99.99,,,-99.99,,2013-03-02 13:02:00,
2013-03-02 06:10:00,27.0,-99.9,-100.00,NE,56,44.0,50.0,-999,-99.99,,,-99.99,,2013-03-02 13:10:00,
2013-03-02 06:12:00,27.0,-99.9,-100.00,ENE,57,41.0,51.0,-999,-99.99,,,-99.99,,2013-03-02 13:12:00,
2013-03-02 06:22:00,27.0,-99.9,-100.00,ENE,60,42.0,52.0,-999,-99.99,,,-99.99,,2013-03-02 13:22:00,
2013-03-02 06:32:00,27.0,-99.9,-100.00,ENE,62,44.0,52.0,-999,-99.99,,,-99.99,,2013-03-02 13:32:00,
2013-03-02 06:42:00,27.0,-99.9,-100.00,ENE,62,44.0,52.0,-999,-99.99,,,-99.99,,2013-03-02 13:42:00,
2013-03-02 06:53:00,27.0,-99.9,-100.00,NE,56,44.0,50.0,-999,-99.99,,,-99.99,,2013-03-02 13:53:00,
2013-03-02 07:01:00,27.0,-99.9,-100.00,NE,56,44.0,50.0,-999,-99.99,,,-99.99,,2013-03-02 14:01:00,
2013-03-02 07:10:00,27.0,-99.9,-100.00,NE,50,35.0,42.0,-999,-99.99,,,-99.99,,2013-03-02 14:10:00,
2013-03-02 07:52:00,27.0,-99.9,-100.00,NE,50,35.0,42.0,-999,-99.99,,,-99.99,,2013-03-02 14:52:00,
2013-03-02 08:02:00,27.0,-99.9,-100.00,NE,50,35.0,42.0,-999,-99.99,,,-99.99,,2013-03-02 15:02:00,
2013-03-02 08:10:00,28.0,-99.9,-100.00,ENE,64,32.0,43.0,-999,-99.99,,,-99.99,,2013-03-02 15:10:00,
2013-03-02 08:52:00,28.0,-99.9,-100.00,ENE,64,32.0,43.0,-999,-99.99,,,-99.99,,2013-03-02 15:52:00,
2013-03-02 09:02:00,28.0,-99.9,-100.00,ENE,64,32.0,43.0,-999,-99.99,,,-99.99,,2013-03-02 16:02:00,
2013-03-02 09:50:00,32.0,-99.9,-100.00,ENE,65,47.0,52.0,-999,-99.99,,,-99.99,,2013-03-02 16:50:00,
2013-03-02 09:52:00,30.0,-99.9,-100.00,ENE,71,43.0,51.0,-999,-99.99,,,-99.99,,2013-03-02 16:52:00,
2013-03-02 10:01:00,30.0,-99.9,-100.00,ENE,64,33.0,50.0,-999,-99.99,,,-99.99,,2013-03-02 17:01:00,
2013-03-02 10:12:00,30.0,-99.9,-100.00,ENE,64,33.0,50.0,-999,-99.99,,,-99.99,,2013-03-02 17:12:00,
2013-03-02 10:22:00,32.0,-99.9,-100.00,ENE,57,51.0,51.0,-999,-99.99,,,-99.99,,2013-03-02 17:22:00,
2013-03-02 10:32:00,32.0,-99.9,-100.00,ENE,65,47.0,52.0,-999,-99.99,,,-99.99,,2013-03-02 17:32:00,
2013-03-02 10:42:00,32.0,-99.9,-100.00,ENE,65,47.0,52.0,-999,-99.99,,,-99.99,,2013-03-02 17:42:00,
2013-03-02 10:50:00,34.0,-99.9,-100.00,ENE,71,32.0,46.0,-999,-99.99,,,-99.99,,2013-03-02 17:50:00,
2013-03-02 11:32:00,34.0,-99.9,-100.00,ENE,71,32.0,46.0,-999,-99.99,,,-99.99,,2013-03-02 18:32:00,
2013-03-02 11:42:00,34.0,-99.9,-100.00,ENE,71,32.0,46.0,-999,-99.99,,,-99.99,,2013-03-02 18:42:00,
2013-03-02 12:32:00,36.0,-99.9,-100.00,NE,51,30.0,38.0,-999,-99.99,,,-99.99,,2013-03-02 19:32:00,
2013-03-02 12:43:00,36.0,-99.9,-100.00,NE,51,30.0,38.0,-999,-99.99,,,-99.99,,2013-03-02 19:43:00,
2013-03-02 13:32:00,37.0,-99.9,-100.00,NE,40,32.0,37.0,-999,-99.99,,,-99.99,,2013-03-02 20:32:00,
2013-03-02 13:42:00,37.0,-99.9,-100.00,NE,40,32.0,37.0,-999,-99.99,,,-99.99,,2013-03-02 20:42:00,
2013-03-02 14:32:00,39.0,-99.9,-100.00,NE,56,36.0,39.0,-999,-99.99,,,-99.99,,2013-03-02 21:32:00,
2013-03-02 14:42:00,39.0,-99.9,-100.00,NE,56,36.0,39.0,-999,-99.99,,,-99.99,,2013-03-02 21:42:00,
2013-03-02 15:32:00,41.0,-99.9,-100.00,NE,42,35.0,35.0,-999,-99.99,,,-99.99,,2013-03-02 22:32:00,
2013-03-02 15:42:00,41.0,-99.9,-100.00,NE,42,35.0,35.0,-999,-99.99,,,-99.99,,2013-03-02 22:42:00,
2013-03-02 16:32:00,41.0,-99.9,-100.00,NE,53,29.0,34.0,-999,-99.99,,,-99.99,,2013-03-02 23:32:00,
2013-03-02 16:42:00,41.0,-99.9,-100.00,NE,53,29.0,34.0,-999,-99.99,,,-99.99,,2013-03-02 23:42:00,
2013-03-02 17:32:00,39.0,-99.9,-100.00,NE,54,17.0,32.0,-999,-99.99,,,-99.99,,2013-03-03 00:32:00,
2013-03-02 17:42:00,39.0,-99.9,-100.00,NE,54,17.0,32.0,-999,-99.99,,,-99.99,,2013-03-03 00:42:00,
2013-03-02 18:32:00,37.0,-99.9,-100.00,ENE,69,24.0,29.0,-999,-99.99,,,-99.99,,2013-03-03 01:32:00,
2013-03-02 18:42:00,37.0,-99.9,-100.00,ENE,69,24.0,29.0,-999,-99.99,,,-99.99,,2013-03-03 01:42:00,
2013-03-02 19:32:00,36.0,-99.9,-100.00,NE,56,19.0,29.0,-999,-99.99,,,-99.99,,2013-03-03 02:32:00,
2013-03-02 19:42:00,36.0,-99.9,-100.00,NE,56,19.0,29.0,-999,-99.99,,,-99.99,,2013-03-03 02:42:00,
2013-03-02 20:32:00,34.0,-99.9,-100.00,NE,53,13.0,18.0,-999,-99.99,,,-99.99,,2013-03-03 03:32:00,
2013-03-02 20:42:00,34.0,-99.9,-100.00,NE,53,13.0,18.0,-999,-99.99,,,-99.99,,2013-03-03 03:42:00,
2013-03-02 21:22:00,34.0,-99.9,-100.00,ENE,73,10.0,12.0,-999,-99.99,,,-99.99,,2013-03-03 04:22:00,
2013-03-02 21:32:00,34.0,-99.9,-100.00,ENE,73,10.0,12.0,-999,-99.99,,,-99.99,,2013-03-03 04:32:00,
2013-03-02 21:42:00,34.0,-99.9,-100.00,ENE,73,10.0,12.0,-999,-99.99,,,-99.99,,2013-03-03 04:42:00,
2013-03-02 22:22:00,36.0,-99.9,-100.00,NE,50,10.0,14.0,-999,-99.99,,,-99.99,,2013-03-03 05:22:00,
2013-03-02 22:32:00,36.0,-99.9,-100.00,NE,50,10.0,14.0,-999,-99.99,,,-99.99,,2013-03-03 05:32:00,
2013-03-02 22:42:00,36.0,-99.9,-100.00,NE,50,10.0,14.0,-999,-99.99,,,-99.99,,2013-03-03 05:42:00,
2013-03-02 23:22:00,34.0,-99.9,-100.00,East,86,4.0,6.0,-999,-99.99,,,-99.99,,2013-03-03 06:22:00,
2013-03-02 23:32:00,34.0,-99.9,-100.00,East,86,4.0,6.0,-999,-99.99,,,-99.99,,2013-03-03 06:32:00,
2013-03-02 23:42:00,34.0,-99.9,-100.00,East,86,4.0,6.0,-999,-99.99,,,-99.99,,2013-03-03 06:42:00,